User: anonymous   Login
Location: Unspecified
(0.0000°N, 0.0000°E)
Time: 14:04:52
(UTC+00:00)
Language:

Kosmos-1429 - Orbit

View from above orbital plane
View from above orbital plane
View from above satellite
View from above satellite

Ground track
Ground track

The orbit data is extracted from the following two-line orbital elements,

1 13761U 83002A   24054.04753047  .00000009  00000-0  17467-3 0  9993
2 13761  74.0211 256.5450 0033303 306.2935 174.7123 12.43419599865597
Epoch (UTC): 23 February 2024 01:08:26
Eccentricity: 0.0033303
inclination: 74.0211°
perigee height: 1466 km
apogee height: 1518 km
right ascension of ascending node: 256.5450°
argument of perigee: 306.2935°
revolutions per day: 12.43419599
mean anomaly at epoch: 174.7123°
orbit number at epoch: 86559

The dashed part of the orbit path shows where the satellite is in the earth's shadow,  

DLR